{"data":{"norad_id":53533,"epoch":"2026-05-25T02:33:22.033728Z","epoch_age_seconds":72647,"freshness":"FRESH","line1":"1 53533U 22101G   26145.10650502  .00000208  00000+0  31151-4 0  9996","line2":"2 53533  53.2150  91.0600 0001285  73.1422 286.9711 15.08843881207704","mean_motion":15.08843881,"eccentricity":0.0001285,"inclination_deg":53.215,"raan_deg":91.06,"arg_perigee_deg":73.1422,"mean_anomaly_deg":286.9711,"bstar":3.1151e-5,"rev_number":20770,"period_min":95.437309196338,"perigee_km":538.84258021952,"apogee_km":540.62047243078,"semimajor_km":6917.8685263251,"source":"CELESTRAK","updated_at":"2026-05-25T13:38:17.440469Z"}}